QZS-6 (MICHIBIKI-6)

Last updated on Mon Feb 16 2026 00:02:52 GMT+0000 (Coordinated Universal Time)

1 62876U 25023A 26046.55840398 -.00000228 00000+0 00000+0 0 9992 2 62876 0.0503 79.8077 0001939 256.8982 100.3689 1.00269531 3736
UTC large
Height (km)
Speed (km/s)
/
Latitude / Longitude
Inclination (degrees)
Orbital Period (minutes)
Azimuth
Elevation
Range (km)
Doppler Factor

Next 0 passes for location: London (51.5072 / 0.1276)

Sorry there are no passes over London.